Location: Bethera
(33.2010°N, 79.7880°W)
Time: 00:13:03
(UTC-04:00)

Amateur Radio Satellites - All Passes

Search period start: 24 October 2014 23:43
Search period end: 25 October 2014 23:43
Location: Bethera, 33.2010°N, 79.7880°W

Satellite Date Start Highest point End Downlink Frequencies (MHz)
Time Altitude Azimuth
RS-15 24 Oct 23:47:22 23:58:00 53° 305° (NW) 00:08:36 29.354 - 29.394 USB, Beacon 29.352 USB
FUNcube-1 24 Oct 23:59:48 00:02:55 18° 265° (W) 00:06:02 145.950 - 145.970 MHz USB
UOSAT-12 25 Oct 00:05:41 00:10:10 43° 57° (ENE) 00:14:34 437.025 FM, 437.400 FM
SO-50 25 Oct 00:25:04 00:26:09 11° 254° (WSW) 00:27:15 436.795 FM
KITSAT 1 25 Oct 00:29:10 00:32:57 14° 259° (W) 00:36:44 435.175 FM
MaSat-1 25 Oct 00:50:23 00:53:55 26° 296° (WNW) 00:57:14 437.345 MHz
UOSAT-12 25 Oct 01:47:02 01:49:55 16° 252° (WSW) 01:52:46 437.025 FM, 437.400 FM
JAS-1B 25 Oct 01:55:34 02:01:22 26° 98° (E) 02:07:56 435.800 - 435.900 CW/SSB
AO-Echo 25 Oct 02:01:17 02:03:02 12° 91° (E) 02:04:47 ?
Oscar 16 25 Oct 02:04:19 02:08:35 26° 97° (E) 02:12:49 437.025 USB, Beacon 2401.1428
RS-15 25 Oct 02:08:21 02:13:45 14° 333° (NNW) 02:19:11 29.354 - 29.394 USB, Beacon 29.352 USB
Uribyol 2 25 Oct 02:24:59 02:28:11 16° 94° (E) 02:31:21 436.500 FM
ITAMSAT 1 25 Oct 02:30:49 02:34:16 18° 94° (E) 02:37:42 435.822 SSB
Oscar 10/S400 25 Oct 02:41:57 03:35:36 16° 252° (WSW) 05:10:43 145.825 - 145.975 CW/USB, Beacon 145.810 USB
Gurwin Techsat 1B 25 Oct 02:51:42 02:54:32 14° 93° (E) 02:57:20 435.225 FM
Oscar 19 25 Oct 02:57:04 03:02:12 88° 284° (WNW) 03:07:18 437.125 CW, 437.150 USB
TMSAT-1 25 Oct 03:03:10 03:05:40 13° 92° (E) 03:08:09 436.925 FM
AO-27 25 Oct 03:15:07 03:20:14 53° 101° (E) 03:25:18 436.795 MHz FM
AO-Echo 25 Oct 03:36:53 03:42:10 69° 285° (WNW) 03:47:25 ?
Sapphire 25 Oct 03:40:34 03:45:31 39° 109° (ESE) 03:50:31 437.095 MHz 1200 baud AX-25 AFSK
Oscar 16 25 Oct 03:43:28 03:47:50 29° 290° (WNW) 03:52:12 437.025 USB, Beacon 2401.1428
JAS-1B 25 Oct 03:45:19 03:51:55 52° 287° (WNW) 03:59:48 435.800 - 435.900 CW/SSB
PCSat 25 Oct 04:02:36 04:07:57 71° 113° (ESE) 04:13:21 145.825 MHz
Uribyol 2 25 Oct 04:02:51 04:07:50 47° 287° (WNW) 04:12:46 436.500 FM
ITAMSAT 1 25 Oct 04:08:58 04:13:54 44° 288° (WNW) 04:18:49 435.822 SSB
OPAL 25 Oct 04:29:22 04:32:08 15° 63° (ENE) 04:34:53 ?
Gurwin Techsat 1B 25 Oct 04:29:35 04:34:46 55° 286° (WNW) 04:39:55 435.225 FM
RS-15 25 Oct 04:32:22 04:33:40 10° 14° (NNE) 04:34:57 29.354 - 29.394 USB, Beacon 29.352 USB
TMSAT-1 25 Oct 04:40:40 04:45:53 59° 286° (WNW) 04:51:04 436.925 FM
AO-27 25 Oct 04:56:12 04:59:14 16° 295° (WNW) 05:02:16 436.795 MHz FM
JAS-2 25 Oct 05:15:27 05:19:37 15° 89° (E) 05:23:43 435.800 - 435.900 CW/SSB, 435.910 FM
AO-7 25 Oct 05:20:58 05:29:10 59° 104° (ESE) 05:37:21 29.400 - 29.500 MHz
Uosat F 25 Oct 05:22:06 05:26:56 46° 100° (E) 05:31:45 435.120 FM
Sapphire 25 Oct 05:24:40 05:29:00 24° 305° (NW) 05:33:23 437.095 MHz 1200 baud AX-25 AFSK
PCSat 25 Oct 05:48:54 05:51:53 15° 310° (NW) 05:54:52 145.825 MHz
OPAL 25 Oct 06:05:25 06:10:30 57° 257° (WSW) 06:15:32 ?
PANSAT 25 Oct 06:08:02 06:08:32 10° 156° (SSE) 06:09:03 not established
STRAND 1 25 Oct 06:13:54 06:16:48 15° 65° (ENE) 06:19:43 ?
Hamsat 25 Oct 06:24:49 06:28:19 25° 96° (E) 06:31:49 145.90 MHz
RS-15 25 Oct 06:41:30 06:51:15 33° 47° (NE) 07:01:17 29.354 - 29.394 USB, Beacon 29.352 USB
JAS-2 25 Oct 06:57:24 07:05:18 88° 284° (WNW) 07:13:02 435.800 - 435.900 CW/SSB, 435.910 FM
Uosat F 25 Oct 07:02:06 07:05:18 17° 294° (WNW) 07:08:30 435.120 FM
Saudisat 1A 25 Oct 07:10:46 07:14:36 30° 112° (ESE) 07:18:27 436.775 MHz
AO-7 25 Oct 07:14:45 07:21:22 28° 299° (WNW) 07:28:00 29.400 - 29.500 MHz
SO-67 25 Oct 07:28:15 07:29:57 13° 94° (E) 07:31:39 435.3500 MHz FM
PANSAT 25 Oct 07:44:52 07:48:09 27° 167° (SSE) 07:51:26 not established
STRAND 1 25 Oct 07:50:30 07:55:29 53° 259° (W) 08:00:31 ?
Hamsat 25 Oct 08:00:59 08:04:05 21° 289° (WNW) 08:07:13 145.90 MHz
JAS-2 25 Oct 08:44:47 08:49:12 16° 300° (WNW) 08:53:38 435.800 - 435.900 CW/SSB, 435.910 FM
Saudisat 1A 25 Oct 08:50:44 08:54:09 22° 307° (NW) 08:57:36 436.775 MHz
RS-15 25 Oct 08:53:14 09:04:23 69° 247° (WSW) 09:16:02 29.354 - 29.394 USB, Beacon 29.352 USB
SO-67 25 Oct 09:00:04 09:02:54 24° 287° (WNW) 09:05:43 435.3500 MHz FM
PANSAT 25 Oct 09:24:21 09:27:58 40° 179° (S) 09:31:34 not established
HO-68 25 Oct 09:31:59 09:38:21 33° 98° (E) 09:44:40 435.675 MHz FM
Oscar 11 25 Oct 10:17:05 10:20:31 23° 96° (E) 10:23:57 145.825 FM, Beacon 2401.500 USB
MaSat-1 25 Oct 10:40:24 10:42:17 20° 253° (WSW) 10:44:06 437.345 MHz
KITSAT 1 25 Oct 11:01:45 11:07:01 19° 103° (ESE) 11:12:17 435.175 FM
PANSAT 25 Oct 11:04:26 11:07:48 29° 192° (SSW) 11:11:10 not established
ZACube-1 25 Oct 11:07:19 11:11:12 35° 98° (E) 11:15:00 437.345 MHz
UKube-1 25 Oct 11:11:17 11:15:38 70° 284° (WNW) 11:19:57 145.840 MHz, 145.915 MHz
RS-15 25 Oct 11:12:44 11:14:48 11° 263° (W) 11:16:54 29.354 - 29.394 USB, Beacon 29.352 USB
HO-68 25 Oct 11:19:27 11:25:59 40° 293° (WNW) 11:32:31 435.675 MHz FM
FUNcube-1 25 Oct 11:51:43 11:55:54 61° 284° (WNW) 11:59:59 145.950 - 145.970 MHz USB
Oscar 11 25 Oct 11:53:09 11:56:34 23° 289° (WNW) 11:59:59 145.825 FM, Beacon 2401.500 USB
ISS 25 Oct 12:19:53 12:23:08 58° 133° (SE) 12:26:25 145.800 FM
Sapphire 25 Oct 12:34:03 12:36:58 14° 50° (NE) 12:39:53 437.095 MHz 1200 baud AX-25 AFSK
Oscar 10/S400 25 Oct 12:35:33 12:59:08 38° 153° (SSE) 13:16:32 145.825 - 145.975 CW/USB, Beacon 145.810 USB
ZACube-1 25 Oct 12:44:53 12:47:15 15° 292° (WNW) 12:49:35 437.345 MHz
PANSAT 25 Oct 12:45:55 12:47:26 12° 203° (SSW) 12:48:57 not established
SO-50 25 Oct 12:52:15 12:56:37 60° 116° (ESE) 13:01:07 436.795 FM
KITSAT 1 25 Oct 12:53:29 13:01:33 74° 298° (WNW) 13:09:39 435.175 FM
PCSat 25 Oct 12:55:28 12:59:49 24° 55° (NE) 13:04:07 145.825 MHz
Oscar 16 25 Oct 13:17:24 13:21:37 26° 69° (ENE) 13:25:49 437.025 USB, Beacon 2401.1428
Uribyol 2 25 Oct 13:39:05 13:42:25 17° 66° (ENE) 13:45:45 436.500 FM
ITAMSAT 1 25 Oct 13:45:04 13:48:35 19° 66° (ENE) 13:52:06 435.822 SSB
ISS 25 Oct 13:58:11 14:00:05 14° 329° (NNW) 14:01:59 145.800 FM
Gurwin Techsat 1B 25 Oct 14:08:57 14:12:08 16° 65° (ENE) 14:15:18 435.225 FM
Oscar 19 25 Oct 14:09:36 14:14:46 87° 76° (ENE) 14:19:56 437.125 CW, 437.150 USB
UOSAT-12 25 Oct 14:12:54 14:17:02 34° 112° (ESE) 14:21:15 437.025 FM, 437.400 FM
Sapphire 25 Oct 14:15:30 14:20:56 72° 247° (WSW) 14:26:18 437.095 MHz 1200 baud AX-25 AFSK
TMSAT-1 25 Oct 14:20:05 14:22:59 15° 65° (ENE) 14:25:53 436.925 FM
JAS-1B 25 Oct 14:27:21 14:33:31 82° 256° (WSW) 14:39:13 435.800 - 435.900 CW/SSB
AO-27 25 Oct 14:29:03 14:34:05 53° 73° (ENE) 14:39:10 436.795 MHz FM
SO-50 25 Oct 14:35:16 14:37:34 14° 312° (NW) 14:39:53 436.795 FM
PCSat 25 Oct 14:38:17 14:43:19 40° 251° (WSW) 14:48:18 145.825 MHz
AO-Echo 25 Oct 14:45:31 14:50:21 82° 257° (WSW) 14:55:23 ?
KITSAT 1 25 Oct 14:53:53 14:58:21 16° 318° (NW) 15:02:51 435.175 FM
Oscar 16 25 Oct 14:56:16 15:00:47 30° 263° (W) 15:05:18 437.025 USB, Beacon 2401.1428
Uribyol 2 25 Oct 15:16:26 15:21:27 48° 260° (W) 15:26:30 436.500 FM
ITAMSAT 1 25 Oct 15:22:44 15:27:40 44° 260° (W) 15:32:40 435.822 SSB
Gurwin Techsat 1B 25 Oct 15:46:26 15:51:36 53° 260° (W) 15:56:47 435.225 FM
UOSAT-12 25 Oct 15:53:34 15:57:13 22° 308° (NW) 16:00:55 437.025 FM, 437.400 FM
TMSAT-1 25 Oct 15:57:09 16:02:21 57° 259° (W) 16:07:35 436.925 FM
AO-27 25 Oct 16:11:01 16:13:51 15° 267° (W) 16:16:42 436.795 MHz FM
AO-7 25 Oct 16:15:12 16:23:10 55° 68° (ENE) 16:31:10 29.400 - 29.500 MHz
Uosat F 25 Oct 16:31:16 16:35:56 40° 72° (ENE) 16:40:38 435.120 FM
JAS-2 25 Oct 17:06:23 17:11:03 24° 64° (ENE) 17:16:08 435.800 - 435.900 CW/SSB, 435.910 FM
Hamsat 25 Oct 17:16:20 17:17:37 11° 67° (ENE) 17:18:53 145.90 MHz
Saudisat 1A 25 Oct 17:20:03 17:24:30 90° 62° (ENE) 17:28:54 436.775 MHz
AO-7 25 Oct 18:09:28 18:16:11 27° 263° (W) 18:22:57 29.400 - 29.500 MHz
Uosat F 25 Oct 18:11:26 18:14:49 18° 265° (W) 18:18:14 435.120 FM
OPAL 25 Oct 18:19:36 18:24:27 53° 103° (ESE) 18:29:15 ?
Hamsat 25 Oct 18:49:02 18:53:06 48° 261° (W) 18:57:10 145.90 MHz
JAS-2 25 Oct 18:50:14 18:55:40 43° 263° (W) 19:01:49 435.800 - 435.900 CW/SSB, 435.910 FM
ISS 25 Oct 18:53:00 18:54:40 13° 30° (NNE) 18:56:20 145.800 FM
SO-67 25 Oct 19:27:49 19:31:07 47° 76° (ENE) 19:34:26 435.3500 MHz FM
HO-68 25 Oct 19:58:24 20:02:34 17° 59° (ENE) 20:06:44 435.675 MHz FM
OPAL 25 Oct 20:00:11 20:02:50 15° 297° (WNW) 20:05:30 ?
STRAND 1 25 Oct 20:05:16 20:10:25 75° 102° (ESE) 20:15:32 ?
ISS 25 Oct 20:28:21 20:31:40 69° 226° (SW) 20:34:58 145.800 FM
KITSAT 1 25 Oct 20:52:09 20:58:51 28° 50° (NE) 21:05:30 435.175 FM
RS-15 25 Oct 21:01:52 21:10:29 27° 104° (ESE) 21:18:55 29.354 - 29.394 USB, Beacon 29.352 USB
Oscar 11 25 Oct 21:10:09 21:11:35 12° 67° (ENE) 21:13:01 145.825 FM, Beacon 2401.500 USB
SO-50 25 Oct 21:28:26 21:32:01 20° 51° (NE) 21:35:36 436.795 FM
HO-68 25 Oct 21:42:13 21:49:22 81° 255° (WSW) 21:56:35 435.675 MHz FM
STRAND 1 25 Oct 21:47:33 21:48:55 11° 297° (WNW) 21:50:17 ?
ZACube-1 25 Oct 22:00:08 22:03:25 20° 70° (ENE) 22:06:40 437.345 MHz
UKube-1 25 Oct 22:02:20 22:06:35 57° 75° (ENE) 22:10:52 145.840 MHz, 145.915 MHz
MaSat-1 25 Oct 22:39:57 22:40:18 10° 104° (ESE) 22:40:39 437.345 MHz
Oscar 11 25 Oct 22:43:05 22:47:17 50° 260° (W) 22:51:29 145.825 FM, Beacon 2401.500 USB
FUNcube-1 25 Oct 22:43:11 22:47:43 61° 76° (ENE) 22:52:11 145.950 - 145.970 MHz USB
KITSAT 1 25 Oct 22:46:46 22:54:40 61° 248° (WSW) 23:02:33 435.175 FM
UOSAT-12 25 Oct 22:48:19 22:49:57 12° 46° (NE) 22:51:35 437.025 FM, 437.400 FM
SO-50 25 Oct 23:08:08 23:12:44 43° 246° (WSW) 23:17:20 436.795 FM
RS-15 25 Oct 23:10:51 23:21:49 68° 301° (WNW) 23:32:43 29.354 - 29.394 USB, Beacon 29.352 USB
